Theta_e
324 319 313 312 322 318 309 304 294 294 297 291 288 289 292 297 298 299 300 301 299 304 305 311 312 311 308 308 313 315 315 306 306 297 297 312 331 336 339 340 340 341 340 338 337 336 336 342 342 343 346 347 348 347 346 345 343 341 338 338 340 342 346 347 347 346 345 345 345 345 346 345 345 345 344 342 341 341 341 340 341 340 340 340 339 340 340 339 342 343 344 345 346 345 345 345 344
322 319 314 315 314 308 303 301 293 290 287 285 287 290 295 295 298 297 298 300 301 305 306 316 317 319 319 318 318 315 315 318 318 315 324 331 336 337 339 340 341 339 339 338 336 334 334 338 343 343 344 347 347 347 346 344 343 342 341 341 341 341 342 343 345 346 345 345 344 343 343 341 341 342 342 342 342 340 340 340 340 340 341 340 340 341 340 339 341 343 343 345 345 344 344 344 344
322 317 313 313 310 307 303 301 296 287 288 285 285 290 294 295 295 296 301 303 305 306 308 311 310 310 313 315 312 310 304 321 324 327 327 333 330 334 339 341 340 340 339 337 337 334 333 337 342 343 342 345 347 346 345 344 343 342 342 341 340 340 342 341 342 343 343 343 343 341 340 338 337 337 339 338 339 339 339 339 339 339 339 339 340 340 340 340 340 340 342 344 345 344 344 344 344
319 316 313 308 306 303 297 295 290 289 289 284 286 292 292 294 297 301 303 304 304 302 304 305 306 309 313 312 314 318 316 318 323 327 326 329 331 337 339 340 340 340 339 338 336 333 333 340 343 344 343 344 347 347 347 347 343 342 342 341 340 337 338 341 341 341 341 343 342 340 339 339 341 341 339 339 339 337 339 339 339 341 341 340 340 341 341 341 340 340 341 343 344 343 343 344 343
314 319 312 307 304 303 298 294 291 288 288 285 287 290 296 297 300 302 304 304 304 305 305 304 306 312 316 315 314 308 311 321 324 325 325 330 338 338 339 340 340 339 338 338 337 333 335 341 342 342 342 343 344 346 347 347 347 343 342 341 340 339 342 341 341 339 341 341 341 341 342 342 343 343 343 343 342 342 343 343 342 342 341 341 341 341 341 342 341 341 341 342 343 343 343 342 343
312 312 314 308 304 306 298 295 290 290 290 289 289 295 298 301 302 303 303 303 303 304 304 303 305 306 314 316 316 312 320 316 323 325 328 331 337 339 339 339 339 338 338 337 336 334 335 339 341 342 343 343 345 345 346 347 347 344 341 340 340 339 339 339 338 341 344 344 344 344 344 344 344 343 344 343 343 343 342 343 343 343 342 342 342 342 343 342 341 341 341 341 343 343 343 342 341
312 308 307 303 302 301 292 290 289 291 293 292 294 299 300 300 303 302 301 303 305 305 306 311 316 314 312 315 318 322 324 324 324 326 331 333 337 338 339 339 338 337 337 337 336 335 334 340 343 343 344 344 345 346 345 346 346 344 342 341 340 340 340 339 339 343 345 345 345 344 343 342 341 341 341 341 341 341 341 341 340 340 340 340 340 340 341 341 341 341 341 342 343 343 341 341 341
314 308 304 295 293 295 293 289 291 289 291 293 297 302 301 302 302 303 301 301 302 302 307 311 307 306 306 315 311 320 325 326 326 330 333 335 336 336 338 339 336 336 337 337 336 334 341 339 343 343 343 343 345 345 346 346 346 343 342 341 340 340 339 338 337 343 343 343 343 342 340 339 338 338 339 340 340 340 340 340 340 339 340 339 339 339 340 339 340 340 341 342 342 341 340 340 340
309 307 303 298 295 292 288 291 292 291 290 299 301 304 308 304 302 302 298 301 300 302 302 305 307 305 308 313 311 318 322 327 329 332 333 334 334 336 339 337 336 335 337 337 336 335 334 339 341 343 343 344 344 345 345 346 345 343 342 341 340 339 338 337 337 338 340 340 339 339 338 338 338 339 339 339 339 340 340 340 340 339 340 340 339 339 339 340 340 341 341 342 341 340 339 340 340
307 304 297 295 292 293 288 288 291 291 294 299 301 303 303 301 300 300 300 300 302 302 303 304 304 306 312 312 313 318 320 327 330 330 332 332 333 338 338 337 337 336 336 337 337 336 336 341 338 340 341 343 344 345 345 345 344 342 341 341 340 339 338 338 337 337 337 338 337 337 337 337 338 339 339 339 339 339 340 339 339 339 339 339 339 339 339 339 339 340 341 341 340 339 339 339 339
299 300 301 297 289 289 289 287 287 290 296 296 300 303 304 300 299 298 300 300 300 301 303 312 312 313 314 313 311 317 324 327 329 327 330 330 335 337 337 337 337 337 336 337 336 337 337 336 340 337 340 340 342 343 345 345 344 342 341 340 339 338 338 337 337 337 337 336 336 341 341 338 338 339 339 339 339 339 339 338 338 338 338 338 338 339 338 338 339 339 340 340 339 338 338 337 337
300 297 299 290 289 288 287 288 291 291 293 296 299 300 298 299 298 298 299 300 300 301 305 309 310 315 311 309 311 320 325 326 328 329 328 332 336 338 337 337 336 337 337 337 337 337 336 336 336 340 336 336 339 340 341 342 343 342 341 340 339 338 338 337 337 336 336 336 338 340 342 342 341 339 339 338 338 338 338 338 338 338 338 337 338 338 338 338 338 338 339 339 338 338 337 337 336
299 297 292 291 287 291 290 290 290 292 294 294 297 299 297 298 298 300 300 301 299 300 303 302 317 314 307 308 313 320 323 326 327 328 329 333 336 338 337 336 336 337 337 337 338 338 336 335 335 335 334 333 333 334 336 339 341 343 341 341 341 340 340 341 342 343 341 341 340 340 340 342 341 341 341 340 340 339 339 338 338 338 338 337 338 338 339 339 339 338 338 337 337 337 336 336 335
300 300 296 292 290 290 289 288 289 291 291 295 295 299 299 299 298 302 302 300 299 300 303 311 315 317 312 314 316 316 322 326 327 328 329 333 337 337 336 336 335 336 337 337 337 339 339 336 335 333 333 333 332 332 332 337 340 342 341 340 340 340 341 341 341 341 341 340 339 339 339 340 340 341 340 340 339 339 338 337 338 337 338 337 337 337 337 337 337 337 336 336 336 336 336 335 334
304 302 295 293 292 290 291 290 292 289 292 291 299 299 299 301 298 300 303 300 298 302 304 309 316 310 308 313 313 318 323 326 327 328 329 333 335 336 335 335 335 335 336 336 338 338 338 338 335 333 332 331 331 331 332 333 334 338 339 338 339 338 338 337 337 336 337 338 336 335 334 333 334 335 336 336 336 335 334 334 337 337 337 336 336 336 336 336 336 336 336 335 335 334 334 334 334
305 300 294 294 289 291 290 292 290 289 290 294 297 297 298 299 299 300 301 301 300 304 303 305 310 305 308 314 314 323 325 326 327 327 330 331 332 334 334 334 335 335 335 335 337 337 338 338 336 334 333 332 330 330 330 330 331 332 335 336 336 335 334 334 333 331 330 330 329 329 327 327 326 327 327 330 331 334 332 330 333 335 335 335 335 335 335 335 335 335 335 334 333 333 333 332 332
302 298 295 288 291 290 291 291 291 289 290 294 296 298 296 297 300 299 300 302 304 305 313 314 310 318 317 313 315 325 326 326 326 327 328 329 330 331 332 333 334 334 335 335 336 337 338 337 336 335 334 333 331 330 331 331 329 328 330 330 331 332 331 330 329 324 322 322 322 321 323 323 324 325 326 325 324 326 325 327 332 335 334 334 334 334 334 334 334 335 334 333 333 332 327 327 326
303 296 290 290 289 291 293 292 293 293 295 296 296 296 297 295 298 301 303 305 306 308 311 312 319 318 318 320 324 326 326 326 326 325 326 326 328 328 330 331 332 331 333 334 335 336 337 337 336 335 334 333 332 332 332 331 329 328 328 330 329 328 325 324 323 323 326 320 320 321 322 323 323 323 324 328 324 325 326 325 329 333 334 333 334 333 333 332 333 334 333 333 332 330 323 315 314
298 292 291 291 290 294 296 293 295 296 296 299 298 295 298 298 298 298 299 299 302 304 307 311 314 317 320 322 324 325 325 325 324 324 324 324 326 326 327 328 329 331 331 333 334 335 335 336 335 334 334 333 332 332 332 330 329 327 326 327 328 325 327 325 323 323 320 320 320 320 320 322 322 322 324 324 322 322 325 324 328 330 332 331 332 332 332 332 333 333 333 332 331 326 313 313 314
298 294 290 291 295 295 294 294 296 298 299 297 297 296 297 298 297 298 298 298 299 302 308 309 311 314 317 320 323 324 325 324 324 323 323 324 325 326 326 326 327 329 330 332 334 335 336 335 334 334 334 333 333 333 332 331 330 328 326 326 326 326 325 325 324 323 322 321 321 321 320 319 320 322 326 326 325 321 322 322 325 326 328 327 328 328 329 330 331 330 330 328 323 317 315 314 315
296 296 292 293 294 295 296 295 295 295 298 299 299 295 297 297 297 297 296 297 296 297 310 312 313 316 318 320 322 323 323 323 323 322 323 322 323 325 327 328 328 329 330 330 331 334 335 335 334 335 334 334 333 333 332 331 330 329 327 326 326 326 326 325 325 324 323 323 322 322 320 321 320 322 321 321 320 320 319 321 321 321 321 318 320 316 316 317 316 317 315 315 313 314 315 317 316
297 294 295 296 295 295 294 294 295 296 297 298 295 297 297 297 298 295 298 296 295 298 304 312 318 319 319 320 321 322 322 322 322 322 322 322 322 324 324 322 324 326 327 328 330 332 334 335 335 335 334 334 334 333 332 331 330 329 328 327 326 325 326 326 325 325 324 323 323 323 321 322 321 321 320 319 319 319 319 318 318 318 315 316 315 316 314 313 314 314 314 313 313 312 314 315 317
294 294 294 294 294 295 296 296 295 297 297 296 296 298 297 297 296 295 299 297 296 296 303 311 320 322 322 323 322 321 321 322 322 322 322 322 322 324 325 326 326 326 326 328 329 331 333 335 335 335 335 334 334 333 332 330 330 330 329 328 327 325 325 326 325 325 325 325 324 322 322 321 321 320 319 319 319 319 319 318 317 317 317 317 316 316 313 312 312 313 313 313 312 312 313 311 312
296 293 293 295 294 295 295 295 294 295 298 298 298 297 298 295 295 295 297 296 294 295 297 313 321 322 323 321 321 321 322 322 322 323 323 324 324 324 325 325 326 327 326 328 328 329 330 333 334 335 335 335 334 333 331 330 330 329 329 327 328 326 325 325 326 325 325 325 324 323 322 322 321 320 320 319 319 319 319 319 318 316 316 317 317 316 317 312 311 313 312 312 311 310 310 311 311
293 294 294 295 296 294 294 293 294 296 296 295 297 297 296 296 295 294 296 297 297 299 299 317 321 321 321 321 321 321 321 322 322 323 323 323 323 323 322 324 325 325 326 327 328 328 329 332 333 335 335 334 334 334 331 330 331 330 329 327 327 325 325 325 326 325 325 325 324 322 322 321 321 321 320 320 318 319 319 319 318 318 317 317 316 315 316 314 313 313 313 313 310 310 310 313 311
294 296 294 294 295 295 294 295 295 295 296 295 297 296 295 293 296 296 297 297 297 303 305 319 320 320 320 320 321 321 321 321 322 322 323 323 322 322 322 323 325 323 326 328 327 328 329 331 332 334 335 335 335 334 332 329 331 330 329 328 327 325 325 324 325 324 325 326 324 323 322 322 321 321 320 319 319 319 318 318 317 317 318 317 316 316 315 314 314 311 311 310 311 311 310 312 310
294 294 295 295 295 296 296 296 295 295 296 294 296 293 294 294 294 293 295 296 300 306 311 319 319 319 319 320 320 321 321 321 321 323 322 322 322 322 323 323 323 325 325 326 327 329 329 330 331 333 334 333 334 334 333 331 331 331 329 329 327 326 326 324 324 325 324 325 325 324 322 321 321 320 321 319 319 320 319 318 317 317 317 317 316 316 315 315 314 314 314 312 312 311 311 311 310
295 295 294 294 293 296 295 295 293 295 296 293 295 294 293 293 295 291 294 294 305 307 312 316 317 318 319 319 320 320 321 322 322 322 321 321 322 323 323 323 323 324 324 326 327 329 328 329 331 331 334 333 332 333 331 332 331 331 330 330 328 327 327 325 325 324 323 325 324 324 323 321 320 320 320 320 319 318 319 318 318 316 317 316 316 315 314 315 315 314 311 311 311 311 312 309 309
295 294 293 292 293 294 295 294 295 295 296 293 293 294 293 293 292 293 293 296 303 308 310 315 315 316 317 318 319 319 320 321 321 321 322 323 324 325 324 325 325 324 325 327 327 327 328 329 331 331 333 332 332 332 331 332 331 330 330 330 329 328 327 326 326 325 324 324 324 323 323 322 321 321 320 320 319 319 318 318 317 317 317 317 316 315 313 312 311 311 310 310 310 310 310 309 309
295 294 291 292 292 290 293 294 295 295 295 293 295 286 289 293 295 293 292 298 300 305 307 310 312 313 315 315 316 317 318 318 320 321 323 324 325 325 325 325 325 325 325 326 327 327 329 330 331 332 331 332 331 332 330 330 330 329 330 330 328 328 328 327 326 326 324 324 324 323 323 322 321 321 321 319 319 318 318 318 318 317 315 315 315 314 312 311 312 310 311 310 312 309 310 308 308
291 292 293 287 287 285 292 294 294 294 295 294 294 288 287 291 295 295 293 297 302 303 305 306 308 309 311 313 314 315 317 319 320 322 323 324 325 326 326 326 325 326 325 324 325 327 328 330 331 332 329 331 330 331 329 329 328 328 328 329 329 328 328 327 327 326 325 324 323 323 323 322 321 321 320 320 319 318 318 316 316 318 317 314 314 313 314 312 312 313 309 309 308 308 307 305 306
291 290 286 288 287 286 290 293 293 294 295 295 294 287 289 290 292 291 294 295 299 301 301 303 304 306 308 310 312 313 315 318 320 321 323 324 325 325 325 326 325 325 325 325 325 326 327 329 329 331 329 330 330 331 330 330 329 328 327 326 328 328 328 328 327 326 326 324 324 323 323 323 322 320 319 318 317 317 317 317 317 319 317 315 314 312 311 313 313 313 312 313 312 311 308 311 305
290 289 284 284 286 287 289 293 291 292 293 295 292 288 287 292 290 291 292 295 295 296 297 299 300 302 303 306 309 311 312 314 317 320 322 323 325 325 326 326 325 325 326 325 325 325 327 328 328 330 329 329 330 330 329 329 329 328 327 327 328 328 328 328 327 326 326 325 324 323 322 323 322 322 321 320 319 317 317 319 320 321 320 318 316 314 314 315 315 315 313 313 315 314 312 311 310
285 287 285 285 286 285 285 289 292 292 292 292 292 290 289 289 289 291 292 294 293 293 294 297 299 299 300 300 304 308 309 311 314 318 321 322 324 325 326 324 325 325 325 326 326 326 327 328 328 329 329 330 330 330 329 329 329 329 327 326 324 328 328 328 327 327 328 328 326 325 323 322 322 323 323 322 320 319 319 320 322 322 321 320 318 317 317 317 316 315 314 311 312 313 312 311 311
283 286 286 286 286 286 287 287 290 292 292 291 290 289 292 293 290 292 292 291 293 294 294 295 296 297 297 297 299 304 308 309 313 317 320 322 323 324 325 325 325 324 325 325 326 326 327 327 327 327 328 329 329 329 328 329 328 328 327 326 324 325 327 327 328 329 330 330 328 327 326 325 324 325 326 326 325 322 318 319 321 322 322 321 319 318 317 316 315 314 314 313 311 313 313 312 312
288 288 288 286 286 286 286 288 289 293 290 289 288 290 292 293 292 291 292 292 293 294 293 291 292 294 296 296 298 301 306 309 313 315 318 321 322 323 324 325 325 325 325 324 324 325 326 326 327 327 327 329 329 328 327 327 327 327 326 321 323 324 325 324 326 329 330 331 330 327 327 328 327 327 327 327 326 325 324 322 320 320 322 321 318 316 315 315 315 314 313 313 311 310 311 312 311
291 290 290 288 288 287 288 289 290 291 290 289 289 290 291 293 292 292 293 293 292 291 292 292 292 292 294 295 297 300 303 307 310 313 316 318 320 322 323 323 323 323 324 324 323 324 325 326 325 325 326 327 328 327 326 327 326 325 325 327 327 326 325 322 324 324 326 330 330 330 328 328 328 327 327 327 326 323 325 324 322 322 320 318 315 315 315 316 316 316 315 311 311 311 311 310 308
290 289 287 287 288 287 289 291 292 292 291 289 289 288 290 291 290 290 290 291 293 293 292 292 293 293 293 295 296 298 303 304 304 307 310 313 318 319 320 321 320 320 321 323 323 324 325 325 325 326 326 326 328 329 328 327 328 328 327 327 327 325 323 322 323 322 325 324 325 326 326 327 327 328 326 327 326 326 324 323 322 321 319 316 316 317 317 314 315 314 313 311 311 312 310 307 307
289 287 288 286 286 288 289 290 291 291 291 288 286 289 291 292 292 292 289 291 293 294 294 295 294 294 293 293 295 297 298 300 300 305 308 313 316 317 318 319 321 322 323 323 324 324 324 324 325 325 326 326 327 328 328 327 328 327 327 322 325 318 319 323 322 323 322 324 324 324 324 325 325 324 324 324 326 326 325 324 323 322 321 320 317 315 315 314 314 314 313 313 310 307 309 306 306
288 287 285 285 287 287 285 288 289 291 289 287 287 286 289 291 291 291 291 291 293 294 294 294 294 294 294 294 294 297 298 299 299 300 304 310 314 317 317 318 320 321 321 322 323 323 325 324 325 325 325 326 326 327 325 328 327 322 320 317 320 323 321 319 318 317 320 320 322 322 324 325 325 324 324 324 326 327 326 325 324 323 322 320 318 317 315 316 316 314 313 313 313 312 309 309 306
289 289 286 285 287 288 287 287 289 290 290 287 285 286 286 287 289 290 292 293 292 293 293 293 293 293 294 294 293 296 298 299 299 299 300 306 310 314 316 318 319 319 320 321 322 324 326 324 325 325 325 325 326 325 325 325 321 318 316 315 315 316 315 316 315 318 318 317 318 318 322 322 324 324 324 324 324 326 325 325 323 322 321 319 318 318 318 318 317 316 314 312 311 312 312 310 305
288 289 289 288 289 288 287 289 289 287 286 288 289 282 281 282 286 290 293 290 290 292 292 293 294 295 293 293 295 295 296 297 300 300 300 303 310 313 315 315 317 319 320 321 323 324 325 325 325 325 325 325 325 324 324 323 322 322 319 319 317 315 318 315 319 321 318 318 321 317 316 320 322 323 323 323 323 322 324 324 322 321 322 321 319 320 320 317 316 315 314 314 311 312 314 312 307
286 288 290 290 290 289 287 286 287 281 281 286 287 283 277 281 284 288 290 289 290 289 290 293 294 294 293 294 296 295 296 296 296 298 299 300 306 310 313 314 316 318 320 320 321 322 323 324 324 324 325 325 325 323 322 321 321 322 322 322 321 319 319 316 311 312 317 315 314 316 319 316 320 322 322 324 325 324 324 323 322 322 323 322 318 319 319 318 318 316 315 311 312 312 311 311 311
285 291 291 291 290 289 287 288 288 281 284 287 287 284 280 282 286 285 285 286 288 288 289 290 293 294 294 295 295 295 296 295 296 298 299 299 304 309 312 314 315 318 319 317 318 319 321 321 322 322 323 322 323 321 321 322 323 321 320 320 319 318 318 317 311 311 311 311 314 315 314 316 318 321 323 324 325 325 324 325 324 324 323 322 319 319 319 319 317 316 313 313 312 312 312 311 311
288 293 292 291 291 290 289 288 285 284 284 281 281 285 282 277 281 284 284 286 287 287 288 290 292 293 294 295 295 294 295 295 295 297 299 299 301 306 310 312 315 315 314 314 316 318 319 319 318 318 320 320 319 319 320 320 321 321 321 319 317 315 315 314 308 306 311 308 313 310 310 311 312 316 319 321 322 323 322 324 323 322 321 320 316 318 318 317 317 317 314 312 312 312 312 312 311
291 293 294 292 291 289 289 285 285 285 281 279 281 282 278 278 279 282 282 284 286 288 289 290 291 293 294 293 293 294 293 293 294 296 298 298 300 304 307 308 308 310 306 307 307 308 312 314 315 316 318 318 318 318 319 319 319 318 319 317 317 313 310 307 306 307 309 306 309 307 308 309 308 311 312 315 317 318 319 319 320 321 321 320 316 317 317 316 315 314 314 313 313 312 311 311 311
295 294 292 290 286 286 283 283 282 282 277 279 281 281 280 277 281 285 285 285 288 291 289 288 289 290 291 292 293 294 294 294 294 294 295 296 295 297 297 301 302 298 297 299 303 308 310 312 314 315 317 316 315 317 317 317 317 317 319 317 317 315 310 310 307 304 304 305 306 305 304 304 305 308 309 310 311 313 314 314 317 317 316 313 315 317 317 316 315 314 314 314 312 312 312 311 309
294 290 286 289 287 283 283 281 282 277 274 276 278 280 280 276 277 281 285 284 284 288 289 291 292 291 291 291 291 292 293 293 294 294 294 294 296 296 295 298 299 299 297 298 300 303 307 310 312 314 311 312 312 315 316 315 315 316 316 316 316 316 312 311 311 309 307 307 304 306 305 303 303 303 304 304 308 312 313 312 311 314 313 315 315 316 316 316 315 315 314 314 314 313 312 310 311
292 288 288 284 278 280 277 280 277 275 275 279 278 279 281 281 282 284 284 286 288 285 288 291 291 290 289 290 292 293 293 294 296 295 294 294 297 297 297 298 298 298 299 299 300 302 305 307 310 312 311 307 311 312 314 313 314 314 315 314 314 312 311 311 311 309 304 307 304 304 304 305 303 306 305 304 305 307 309 311 309 308 308 309 312 314 314 314 314 314 313 312 312 311 312 310 310
289 287 284 282 276 275 274 272 272 271 276 277 279 281 279 279 282 290 291 294 293 290 288 288 289 290 292 293 292 292 293 295 296 295 295 295 296 296 296 298 299 298 297 298 298 300 302 305 307 311 310 305 307 310 312 312 313 312 311 311 309 309 309 310 308 309 304 304 305 305 304 302 304 305 306 306 305 306 305 306 306 309 312 312 311 311 312 312 311 311 312 311 310 310 309 309 308
289 289 288 283 280 274 272 272 275 277 277 276 278 277 274 277 283 284 289 291 289 287 288 288 289 291 291 291 291 291 291 291 291 293 295 296 296 295 296 297 297 298 297 297 298 299 300 303 304 307 306 304 307 309 309 311 308 307 306 307 307 307 308 306 305 305 305 304 303 305 304 303 304 304 306 304 302 303 303 303 305 307 308 310 309 309 309 309 309 308 308 308 308 308 308 307 306
289 288 288 284 284 283 279 278 277 274 273 275 276 276 277 282 283 286 287 287 289 288 290 291 292 292 291 292 292 293 292 292 291 292 293 294 295 294 295 296 297 298 298 297 298 299 300 301 302 305 307 305 305 305 307 308 306 307 306 307 306 305 304 305 304 303 304 305 305 304 303 303 304 305 305 304 302 302 301 301 303 305 306 307 307 306 306 306 304 305 306 305 305 305 305 304 304
287 287 285 285 288 285 279 278 279 278 275 274 274 277 280 280 287 289 284 287 289 289 290 290 291 291 291 292 293 292 292 292 291 293 293 294 292 293 296 296 297 297 298 299 300 300 300 300 302 303 304 303 304 305 306 306 306 307 306 307 306 306 308 308 308 307 305 306 307 307 306 305 306 307 306 303 302 299 297 297 300 300 301 301 303 304 305 305 306 305 304 304 303 302 300 301 302
288 283 287 289 291 288 283 278 273 271 273 274 274 277 277 278 279 283 284 286 287 287 288 289 290 290 290 292 292 292 292 293 292 292 292 294 295 296 296 297 298 299 299 298 299 299 300 302 303 304 303 304 302 304 305 306 307 307 306 306 306 307 307 306 307 306 306 306 305 304 304 304 304 302 301 297 296 295 295 294 296 295 295 296 295 296 296 296 298 300 303 303 302 301 301 298 298
289 288 293 288 281 281 282 279 273 271 269 268 273 275 275 277 281 281 283 284 288 288 287 287 289 290 291 291 290 289 289 290 291 292 292 293 294 295 296 297 296 297 298 298 299 300 300 300 302 305 305 305 304 304 304 305 307 308 308 307 307 307 307 308 306 304 303 303 302 302 303 300 296 293 295 294 294 292 291 290 291 290 291 291 292 292 292 292 292 294 296 296 297 298 298 298 297
291 289 288 289 287 284 280 281 279 277 272 270 271 274 277 280 279 282 289 288 288 288 286 289 291 292 292 291 292 291 291 292 292 293 293 293 294 294 295 296 296 297 297 298 299 300 301 301 301 302 302 302 303 304 305 306 305 308 307 306 307 307 307 307 304 302 302 301 298 299 298 296 294 292 293 292 290 290 289 289 288 289 289 289 290 290 291 290 289 289 289 290 291 295 295 294 294
285 285 283 285 285 286 285 283 279 279 272 268 269 270 273 279 282 284 288 290 289 288 289 290 290 290 291 291 292 291 292 293 293 293 293 293 293 293 293 294 294 293 294 296 299 301 300 300 301 301 303 302 303 302 305 305 305 308 307 307 305 304 302 302 301 300 299 296 294 294 294 293 290 290 288 289 289 288 288 288 289 289 289 289 289 289 289 288 288 288 289 289 289 290 291 291 293
288 285 284 286 282 281 279 279 280 274 276 273 267 273 275 282 284 287 288 288 286 286 289 290 290 290 291 292 292 292 293 293 292 292 292 292 292 292 292 292 291 293 293 295 297 298 298 300 300 300 302 302 301 302 305 305 305 306 305 303 302 300 300 299 298 296 294 292 290 290 289 289 290 286 288 289 288 287 286 287 288 289 289 290 292 295 292 292 292 292 292 294 291 291 291 292 292
Wind_Speed
7 6 3 0 4 4 2 4 1 3 2 1 2 1 2 0 2 3 1 1 4 2 1 3 6 4 1 4 10 7 2 2 1 3 2 2 4 9 10 11 8 6 7 4 4 4 4 7 10 10 13 12 13 13 12 13 14 15 14 12 15 15 17 18 17 17 17 17 18 19 19 18 18 18 17 17 17 17 18 18 17 17 17 17 18 17 16 16 17 18 19 18 18 18 18 19 19
4 5 2 0 2 2 1 1 3 3 4 3 1 1 3 1 3 5 4 4 1 3 2 9 11 13 14 11 7 3 5 4 2 2 2 4 9 8 10 11 10 9 6 4 4 3 3 5 8 8 13 14 13 13 12 13 13 14 14 14 15 14 15 16 18 17 17 16 16 16 17 17 17 17 17 17 17 16 17 17 17 17 17 17 17 17 17 17 17 18 18 19 19 19 18 18 19
4 6 3 6 4 3 1 3 1 0 2 1 2 3 1 3 4 3 4 8 9 8 5 9 9 5 3 2 6 3 1 3 6 4 4 8 12 8 10 9 8 9 8 4 4 3 3 5 9 9 12 13 13 12 12 14 13 13 14 15 13 14 15 15 16 16 16 16 17 16 15 16 16 15 17 16 16 17 16 16 16 16 16 17 17 17 17 17 16 17 18 19 20 19 20 19 19
1 2 2 2 0 3 1 2 3 2 0 4 1 1 3 6 4 5 4 6 7 4 1 3 6 3 4 9 4 4 4 2 1 5 7 7 5 10 10 10 8 7 6 5 4 3 3 5 8 9 10 12 13 12 12 11 12 14 12 13 14 11 13 15 14 14 15 17 17 17 15 16 16 17 17 16 17 16 15 15 16 16 16 16 16 17 18 17 17 16 18 19 19 20 20 20 19
2 2 2 4 4 1 1 0 2 2 2 3 5 2 3 3 7 4 2 2 1 5 4 3 5 4 2 6 1 1 3 3 4 2 3 4 10 9 10 10 9 8 7 5 4 3 3 8 8 9 12 11 13 13 12 11 10 10 13 13 12 13 15 15 13 13 14 15 16 16 16 16 16 16 16 16 16 15 16 16 16 16 16 16 17 16 17 17 17 17 17 18 18 19 20 20 18
4 4 3 2 0 2 3 1 2 1 6 5 2 4 5 6 8 4 3 2 1 4 6 4 4 2 3 2 1 2 4 4 3 3 4 8 12 12 12 9 9 8 7 5 4 3 4 8 8 9 10 11 13 13 12 11 10 9 13 12 12 11 12 13 12 14 15 15 16 15 16 15 16 16 16 16 15 15 16 16 16 16 16 15 15 16 17 17 17 17 17 18 18 20 18 19 18
1 4 4 4 2 4 4 2 3 3 7 6 5 7 9 6 6 7 4 5 3 7 2 4 8 5 5 1 2 1 2 2 2 4 5 10 12 13 11 9 9 9 8 6 5 4 4 7 9 10 7 9 13 12 12 12 11 9 13 13 12 12 13 12 12 15 15 15 16 16 15 15 16 15 15 15 15 15 16 16 16 16 15 15 15 16 16 16 16 16 17 17 17 18 18 18 18
2 2 1 2 1 2 0 1 4 4 2 7 4 12 7 8 6 6 5 4 2 3 1 5 2 6 0 2 3 2 2 1 4 7 12 11 12 12 10 10 10 9 8 7 5 4 7 9 9 8 8 10 13 13 13 12 10 10 12 12 12 12 12 11 12 14 15 15 15 16 15 13 14 14 14 14 14 15 15 15 15 16 16 16 16 15 15 15 15 16 16 16 16 16 16 16 17
4 4 0 4 0 2 2 2 3 3 3 2 3 3 8 8 7 8 4 1 3 4 4 4 4 7 2 3 1 2 2 2 7 12 13 13 12 11 9 10 11 9 8 7 6 4 4 8 9 9 8 8 10 13 13 12 11 11 12 12 12 12 12 12 12 12 13 14 14 14 14 13 13 14 14 14 14 15 15 15 15 15 15 15 15 15 15 14 14 14 15 14 15 14 15 15 15
2 3 1 1 3 2 2 5 1 1 1 2 8 8 6 4 3 2 9 5 5 5 1 3 1 5 4 5 1 1 2 3 10 10 11 12 11 11 11 11 12 12 9 8 6 5 4 10 8 8 8 8 9 11 13 12 11 11 12 12 12 12 12 12 12 11 12 12 13 13 13 13 14 14 14 14 14 13 13 14 14 14 14 15 14 14 14 14 14 13 13 13 13 13 14 15 15
1 4 2 2 1 0 3 3 3 3 1 1 1 3 7 5 5 5 4 6 2 5 2 5 7 9 4 1 1 3 1 4 12 12 10 9 11 11 10 10 12 12 10 9 7 6 5 5 9 8 8 9 9 9 10 11 12 11 12 12 11 11 12 12 11 11 12 12 13 13 12 12 13 14 14 14 14 13 14 14 14 14 14 14 14 14 14 14 13 13 13 12 12 13 13 15 16
1 1 1 2 2 4 4 2 1 2 2 0 3 3 2 4 4 5 5 9 2 5 5 4 5 5 5 1 1 0 2 5 10 9 6 8 10 10 10 8 10 10 12 10 8 6 5 5 5 8 8 9 9 9 8 9 11 11 11 12 11 11 13 12 10 10 12 11 12 12 13 14 13 13 13 13 12 12 13 14 14 14 13 13 13 13 13 13 13 12 11 11 11 11 12 13 14
3 1 5 3 3 1 2 0 3 0 0 3 5 4 3 4 6 9 6 7 5 6 2 3 13 3 3 2 2 1 3 7 6 6 5 8 9 8 9 8 9 10 9 10 9 8 6 5 5 5 6 9 9 9 8 9 10 10 9 10 9 9 10 11 11 10 11 13 12 12 12 11 12 13 13 12 11 12 12 12 13 13 13 13 13 13 13 13 12 11 10 10 10 10 11 12 12
2 3 5 3 1 2 3 1 0 4 3 4 2 1 5 3 4 7 9 8 4 6 1 9 7 7 3 2 1 3 6 6 5 5 5 9 8 7 9 8 9 9 8 10 9 9 7 5 5 5 5 5 5 7 9 10 10 10 9 9 9 9 10 10 9 10 11 11 10 10 10 10 11 12 12 12 13 12 11 10 12 13 13 13 12 12 12 12 11 10 9 9 9 9 10 11 11
1 1 3 2 0 1 2 3 8 5 6 3 2 4 1 2 3 3 10 8 3 1 3 2 4 5 6 8 5 9 9 8 5 4 8 8 8 8 9 9 9 8 7 8 9 10 9 7 6 5 4 4 5 5 4 7 10 10 10 9 9 10 10 10 9 9 11 10 11 10 10 10 10 11 12 11 11 10 9 9 9 10 12 12 11 11 11 10 10 9 8 8 8 8 8 9 9
1 3 2 1 1 2 4 1 2 4 5 4 3 4 5 1 1 5 2 4 3 2 1 2 1 1 6 12 8 15 11 7 5 6 10 9 7 6 8 8 8 8 7 7 9 8 8 8 5 5 5 4 4 4 5 5 8 10 10 10 10 11 10 10 9 9 9 10 10 10 10 8 8 8 11 8 10 10 9 6 8 8 10 10 10 10 10 10 9 8 7 6 6 6 7 7 6
1 3 0 3 3 2 3 3 6 4 3 3 2 2 4 2 1 0 1 1 8 0 3 1 0 1 11 5 5 14 10 6 7 9 11 8 7 7 6 6 7 7 6 7 8 8 8 9 8 5 5 5 5 4 4 4 6 9 9 10 11 11 10 10 9 9 8 9 8 9 8 6 5 5 6 5 7 6 8 8 8 9 9 9 9 9 9 9 8 6 5 5 5 4 4 5 5
1 1 3 1 4 2 4 5 8 3 7 6 5 5 9 5 1 2 4 9 5 2 5 2 4 5 1 1 10 14 10 10 8 11 10 9 7 7 7 7 7 8 7 7 7 8 8 9 9 7 6 6 5 5 4 5 5 5 6 6 6 8 8 8 7 5 6 4 8 6 5 5 5 4 4 5 5 5 7 9 8 8 9 6 7 8 8 8 6 5 4 4 5 4 5 3 3
2 1 2 7 4 5 5 2 6 4 5 11 7 5 6 7 8 3 6 1 3 4 2 3 4 5 6 8 11 14 11 10 9 10 12 12 10 11 9 7 8 8 8 7 7 9 8 8 7 7 7 7 7 5 5 5 6 4 5 6 6 7 7 6 5 5 4 4 4 4 4 5 4 4 4 4 4 6 6 8 8 8 8 7 7 5 5 5 5 5 4 3 3 4 3 3 3
3 3 4 5 6 3 4 4 6 5 5 6 8 6 4 7 3 1 5 7 2 8 6 0 3 5 7 7 11 12 11 10 9 10 11 11 10 11 10 10 8 9 9 8 8 8 8 8 9 8 8 8 7 6 5 5 5 4 4 5 5 6 6 5 5 5 4 4 4 4 4 3 4 4 5 8 6 4 5 7 8 8 8 7 7 4 4 4 4 4 3 3 4 3 2 3 3
2 1 4 3 3 0 3 2 2 5 5 13 8 4 5 5 4 3 6 8 4 4 7 10 10 11 10 11 13 12 12 11 9 8 10 10 8 7 9 11 10 9 8 7 6 8 9 10 9 8 8 7 7 6 7 6 5 5 4 5 5 5 5 5 5 5 5 5 5 5 4 4 3 4 5 5 5 5 4 4 4 4 4 3 5 2 2 1 1 0 0 2 1 2 4 4 3
1 6 5 5 0 1 8 3 2 2 4 5 7 11 8 3 1 5 13 10 9 10 10 6 15 15 15 14 12 11 13 13 12 10 11 11 11 10 6 4 2 4 5 7 9 8 8 9 10 8 9 8 8 7 7 7 7 6 5 5 5 5 5 6 5 5 5 5 5 5 5 5 5 4 4 4 5 5 5 5 4 4 3 4 2 3 1 1 1 1 1 1 2 2 3 4 5
4 4 3 5 3 2 2 2 2 5 4 5 9 7 6 7 3 5 12 9 5 5 8 10 13 17 16 16 15 13 13 14 14 14 13 12 10 9 9 7 8 8 6 7 7 7 8 8 9 9 9 9 9 7 6 6 7 6 6 6 6 6 5 5 6 5 5 5 5 5 6 5 5 5 5 5 5 5 5 5 5 5 4 4 3 4 3 2 2 3 2 3 1 2 4 3 3
4 7 1 3 2 5 2 1 3 2 10 11 3 5 8 7 6 3 7 5 3 3 5 10 10 9 11 13 13 17 17 17 16 15 14 14 13 12 10 10 7 6 6 8 7 7 8 9 9 9 9 10 8 8 7 7 6 6 7 6 6 7 6 6 6 6 5 6 5 5 6 6 7 6 5 5 5 5 5 5 5 4 4 4 4 3 5 3 3 3 3 2 2 2 3 3 2
3 4 4 3 0 2 3 2 2 3 2 1 4 7 8 8 5 5 7 6 3 0 5 9 10 11 11 13 14 13 13 12 12 12 8 7 7 6 5 5 6 7 8 8 7 7 8 9 9 10 10 11 9 8 8 7 6 6 6 6 7 6 6 6 6 6 5 5 5 5 6 6 6 6 6 6 5 6 5 5 5 5 5 5 4 4 4 4 3 3 3 3 2 3 3 4 3
1 6 3 1 1 0 1 3 1 4 2 4 5 2 1 3 1 5 6 5 2 3 9 12 12 12 13 13 15 14 13 15 13 11 13 8 6 7 8 7 7 8 10 9 8 8 7 8 9 11 11 11 10 9 7 7 7 7 7 7 7 6 7 7 5 6 6 5 5 5 7 7 7 7 6 5 6 6 5 4 5 5 5 5 5 5 5 5 5 4 3 3 3 4 3 3 2
4 8 7 6 3 1 1 0 1 1 3 3 7 2 2 2 2 5 3 5 3 6 9 11 14 14 14 12 12 12 14 15 16 13 8 8 8 10 10 8 9 10 8 9 8 8 7 7 9 10 10 9 8 9 8 8 8 8 7 7 6 7 7 6 6 6 6 6 6 6 6 7 7 6 6 6 6 6 6 5 5 5 5 5 5 5 5 5 5 5 5 4 3 3 4 3 2
9 8 2 1 2 0 0 0 3 0 1 1 6 2 1 2 1 6 5 4 6 11 9 11 12 13 13 12 12 11 12 12 10 10 16 14 13 11 11 10 10 9 10 11 9 7 7 9 9 9 10 9 9 9 8 8 9 9 8 7 7 7 6 6 6 6 6 6 5 6 5 5 6 6 6 5 6 6 6 6 6 5 6 6 5 5 5 5 5 4 3 3 3 3 3 3 2
9 1 5 3 2 2 2 5 2 0 2 4 4 3 1 1 6 6 5 6 5 10 11 12 11 11 11 11 10 9 12 10 10 11 14 14 11 10 12 10 10 10 8 10 10 8 10 9 9 9 9 9 10 10 9 8 8 8 8 8 7 7 7 6 7 7 7 6 6 6 6 5 5 6 6 6 5 5 5 6 5 6 6 6 5 5 4 4 3 3 3 1 1 1 2 3 2
7 3 3 1 1 3 5 1 1 1 1 2 3 5 7 11 11 6 1 7 5 5 9 10 9 9 9 9 10 10 8 7 11 13 12 12 12 12 13 11 11 10 9 8 9 11 10 7 8 7 8 10 10 9 8 8 8 7 7 7 7 7 7 7 7 6 6 6 6 6 6 6 5 5 6 5 5 5 4 5 6 6 5 5 5 4 5 4 4 3 4 1 4 3 4 3 2
3 4 2 4 3 5 1 4 3 3 1 1 1 6 7 7 10 8 2 5 11 9 8 9 8 8 8 9 9 10 10 11 14 14 13 13 12 12 13 11 11 11 8 9 12 13 11 10 8 8 9 10 10 9 9 8 7 7 7 7 7 7 7 7 7 6 5 6 6 6 6 6 5 5 5 6 5 5 4 4 4 6 5 4 5 4 5 4 4 5 3 3 3 3 3 2 2
3 1 5 0 5 4 3 1 6 8 0 1 3 4 8 6 9 5 6 7 7 10 8 9 8 8 9 8 10 10 11 11 11 12 13 13 12 12 13 13 11 11 12 11 10 10 12 11 10 10 9 10 10 10 8 8 7 7 7 6 6 6 7 7 6 6 6 5 6 6 5 6 5 4 4 4 5 4 4 5 5 4 4 4 3 3 3 4 4 4 4 4 4 5 3 5 3
2 4 2 3 2 4 1 3 3 5 3 0 4 5 2 6 5 3 5 11 9 9 8 8 9 9 9 9 9 9 8 8 9 11 12 12 12 11 12 12 11 13 12 10 11 10 11 11 12 12 12 11 10 9 8 7 7 7 7 7 7 7 7 6 6 5 5 5 5 5 5 5 5 5 5 5 5 4 4 4 4 3 2 4 4 4 5 5 5 5 5 5 5 6 4 5 5
5 0 3 3 6 2 2 3 2 2 4 5 2 2 6 3 4 2 3 8 8 8 9 10 10 9 9 8 7 8 9 9 13 13 14 13 12 13 11 11 11 10 10 12 11 13 13 11 11 11 11 11 10 10 9 8 7 7 6 6 6 7 7 6 5 5 6 6 5 5 5 5 5 5 5 5 5 5 4 4 4 4 4 4 4 5 6 5 3 4 6 4 4 4 5 5 6
2 1 3 2 1 3 4 5 4 5 1 6 3 5 10 9 3 2 4 4 7 10 11 11 11 9 8 7 8 9 10 11 14 13 14 14 13 12 11 10 10 9 9 10 11 11 10 10 9 10 10 10 9 9 8 7 7 6 6 6 5 6 6 6 6 6 6 6 6 5 5 5 5 5 6 6 6 5 4 4 4 4 5 5 4 4 3 3 3 2 4 4 3 5 5 5 6
6 6 5 2 4 3 3 5 2 9 5 6 6 9 11 13 8 4 4 4 7 10 5 4 6 6 7 8 9 9 10 14 12 11 11 11 12 12 11 10 10 10 9 9 10 10 10 9 9 9 9 10 8 8 7 7 6 7 7 4 5 6 6 6 5 6 6 6 6 6 5 5 5 6 6 5 5 6 6 6 5 4 5 5 5 4 4 4 6 6 5 6 6 4 3 5 4
5 4 2 6 6 4 3 3 2 1 3 7 7 9 10 11 8 6 4 1 3 5 7 8 7 8 9 9 10 12 11 15 9 10 11 12 13 12 10 9 9 9 9 10 10 10 12 12 11 12 9 9 9 9 8 9 9 7 5 9 9 7 6 4 5 5 5 6 6 7 7 6 6 6 6 6 5 5 5 5 5 5 5 4 4 5 6 6 6 6 6 4 5 5 5 4 4
5 6 5 7 3 6 4 3 0 0 5 5 7 6 10 11 7 6 1 3 9 10 10 8 10 9 10 11 12 11 14 4 2 6 7 6 9 10 8 8 8 10 10 10 13 13 12 11 13 12 9 10 11 11 10 9 9 10 10 10 8 6 5 6 6 5 6 5 5 6 7 7 7 7 7 6 7 7 6 5 5 5 5 5 6 5 5 5 6 5 4 3 4 6 5 4 4
4 6 5 4 7 3 5 1 1 0 2 7 1 6 11 12 10 6 4 8 8 10 11 13 13 10 10 10 11 11 6 8 6 9 8 10 11 11 10 10 10 13 13 13 13 12 11 11 11 11 11 11 11 11 10 11 9 8 8 5 7 4 3 5 5 5 5 6 6 6 6 6 6 6 6 6 6 6 7 7 7 6 6 6 5 6 6 7 7 8 6 6 5 2 5 2 4
5 4 4 6 3 4 6 2 1 0 3 2 3 5 8 8 6 7 7 8 8 8 10 11 8 13 14 14 14 12 13 11 10 12 13 11 11 11 10 11 12 10 10 10 10 12 11 11 11 11 12 11 11 11 11 11 9 5 4 4 5 6 5 4 4 4 4 4 5 6 6 7 7 6 6 7 6 6 7 7 7 6 7 6 7 7 7 8 7 6 6 7 6 6 4 5 5
3 5 4 5 2 5 5 5 1 0 0 2 2 2 6 5 7 6 6 10 8 6 6 8 9 9 8 5 5 10 15 14 13 11 9 9 10 13 14 13 10 12 13 12 12 12 10 13 13 13 12 12 11 11 11 7 6 4 4 2 2 2 1 2 4 5 5 5 5 5 7 6 6 7 6 6 7 7 7 7 6 6 6 7 7 8 9 10 8 7 6 4 6 8 8 5 2
6 5 9 10 8 6 3 1 5 1 3 3 2 2 7 5 8 12 10 3 6 8 8 11 13 12 8 8 13 11 9 8 13 14 14 14 14 12 10 10 11 12 13 13 12 13 12 12 12 11 10 10 11 10 10 8 9 9 7 7 6 5 7 5 9 10 7 6 8 4 4 5 6 6 5 6 6 6 6 6 6 6 7 7 7 8 7 4 5 6 7 9 8 7 8 5 4
6 6 7 12 9 6 4 5 4 3 5 3 1 9 7 4 5 8 10 8 11 3 6 12 11 11 9 12 13 11 12 10 7 7 6 8 10 10 11 12 13 13 13 10 9 10 11 10 10 11 11 10 10 8 9 9 8 9 11 11 9 9 9 6 2 3 5 5 4 5 5 4 4 6 5 6 6 6 6 5 5 6 6 5 4 4 5 6 6 8 7 7 9 8 6 8 8
9 2 2 4 4 5 7 9 8 4 1 1 1 3 5 8 8 5 2 3 8 8 8 11 11 11 11 13 13 10 11 9 10 12 10 9 10 13 16 15 13 14 12 9 10 9 10 10 10 11 9 9 8 7 9 10 11 9 9 9 9 8 8 7 5 4 3 4 4 5 4 4 4 5 6 6 6 6 6 5 5 5 5 4 4 5 6 6 4 4 4 5 4 4 4 6 6
3 3 6 5 6 8 8 7 6 1 3 6 2 1 1 6 7 4 1 3 6 10 10 13 14 14 15 15 13 12 12 10 10 10 11 11 11 12 11 12 13 11 8 9 10 10 9 8 8 7 8 7 7 8 10 9 9 10 10 8 7 5 5 5 4 2 4 3 5 2 3 3 3 3 3 3 4 4 4 4 4 3 3 3 3 3 3 3 4 5 4 4 5 4 5 7 5
6 2 3 3 4 4 3 5 5 0 2 7 5 4 4 7 6 4 1 2 7 9 11 14 16 17 15 13 11 11 7 6 7 9 8 9 10 10 9 6 6 8 6 5 5 5 6 6 7 9 9 8 7 8 9 9 8 8 8 8 9 6 5 3 2 4 4 4 5 3 1 1 1 1 1 0 2 1 2 2 2 1 0 1 0 1 1 1 1 2 3 3 3 4 3 4 6
3 6 3 2 6 2 3 4 2 2 4 7 5 3 3 5 5 8 6 7 8 10 7 5 6 8 10 11 11 10 9 9 8 7 7 7 5 5 3 6 6 4 4 5 5 6 6 7 7 9 9 7 7 9 9 10 8 8 9 8 8 8 6 6 4 3 3 3 4 3 3 2 2 2 2 3 2 2 3 3 3 3 2 2 1 0 1 1 2 2 3 3 3 4 4 4 4
5 3 4 3 1 4 2 1 2 3 6 6 2 3 3 7 4 5 8 4 4 5 7 10 9 9 10 8 8 8 7 7 5 5 6 5 4 5 4 6 5 6 5 5 5 6 7 7 8 9 6 7 7 8 8 9 8 8 7 9 9 9 9 8 7 7 6 6 5 5 3 4 3 3 4 4 3 2 3 3 1 0 1 1 1 0 1 1 2 2 2 3 3 3 3 3 4
4 3 5 7 3 1 4 0 4 5 6 0 0 2 1 10 7 8 6 8 8 6 8 9 8 8 6 6 7 6 6 6 7 6 5 5 6 7 7 7 5 6 8 8 8 7 7 7 9 10 9 6 8 7 9 8 8 8 8 9 8 7 8 8 7 7 5 6 5 4 5 5 2 1 1 2 1 2 2 1 2 2 2 1 1 1 2 2 1 0 1 2 2 3 3 2 3
6 7 6 7 5 4 5 3 1 4 6 4 1 0 4 3 5 13 15 17 12 6 8 9 7 8 8 6 5 5 5 6 7 6 6 6 6 5 5 5 6 5 6 7 7 7 7 7 8 10 9 6 6 7 8 9 8 8 7 7 7 7 7 7 6 7 6 5 5 5 5 4 3 2 1 0 2 2 2 1 2 3 3 3 3 1 0 1 2 2 1 1 1 1 1 1 2
7 3 8 5 5 3 4 3 6 8 8 1 3 1 6 5 4 3 10 10 9 6 8 6 5 6 4 1 1 1 3 4 4 5 6 6 6 5 6 5 5 5 5 6 6 6 6 7 7 8 8 6 7 8 7 8 7 6 5 6 7 5 7 5 5 5 6 5 5 5 4 3 3 1 0 0 2 3 3 3 1 1 0 0 0 1 1 1 1 2 1 1 2 3 4 3 2
3 3 4 6 10 5 5 5 3 2 1 1 1 6 4 5 3 7 5 7 7 3 4 2 5 2 2 2 4 5 5 4 4 4 5 5 5 5 4 4 5 5 5 5 5 5 6 6 5 6 8 7 7 7 6 7 7 6 6 6 6 6 5 5 5 4 4 5 6 6 5 3 2 3 2 3 3 2 2 2 2 2 1 2 2 2 2 2 3 3 3 3 3 0 1 0 0
3 4 7 4 2 6 3 2 0 1 3 6 2 5 6 8 9 9 3 4 7 2 2 2 4 3 2 6 5 5 4 4 4 5 5 5 4 4 5 5 5 5 5 7 7 6 6 6 6 6 6 5 6 6 7 6 7 7 5 6 6 6 7 7 7 6 6 5 5 5 4 3 3 4 4 3 4 4 4 3 4 4 4 3 4 4 4 3 1 1 1 1 2 3 2 3 3
7 5 8 2 1 3 4 5 2 1 5 7 2 6 5 1 7 4 5 2 9 5 4 3 3 2 5 6 5 5 5 5 3 3 4 4 5 5 5 5 6 7 7 5 6 4 5 6 6 8 6 8 5 6 7 7 8 7 6 6 6 7 7 6 6 6 5 6 5 5 5 4 5 4 5 3 4 4 4 4 5 5 4 5 4 5 5 5 4 4 3 2 2 2 2 3 3
4 7 6 7 5 7 1 2 4 2 4 4 2 2 4 6 7 5 4 4 9 9 4 3 5 5 7 7 6 5 4 3 4 4 4 3 4 5 5 6 5 5 5 5 5 5 4 5 5 7 8 7 7 6 5 5 6 6 6 6 6 6 6 6 5 5 5 5 5 5 5 5 4 3 4 4 4 4 4 4 5 4 4 4 4 5 4 6 6 6 6 5 5 4 5 4 4
1 3 3 1 2 3 3 7 2 4 5 0 8 1 6 6 6 8 11 9 8 6 4 9 11 10 8 7 6 6 5 5 5 5 4 4 4 4 5 5 5 5 5 5 5 5 6 5 6 5 5 6 6 7 7 7 5 7 6 6 5 5 6 5 5 5 5 5 5 6 6 5 4 3 4 4 4 5 4 5 4 5 4 4 4 4 5 5 5 5 4 5 4 5 5 4 4
2 2 3 1 0 2 2 1 4 5 5 4 3 4 4 7 8 7 11 12 9 4 8 9 8 7 8 6 6 6 6 6 6 5 4 4 3 3 3 3 3 3 3 4 5 6 6 5 6 6 9 7 7 6 6 6 6 6 6 5 5 5 5 5 5 5 7 5 4 5 5 5 4 4 4 5 5 4 4 5 5 6 5 4 4 5 4 4 5 4 4 4 4 4 5 4 4
8 7 7 9 6 4 6 10 2 2 2 5 3 7 6 10 3 8 10 6 4 5 7 9 9 8 8 7 6 6 6 6 5 4 4 4 3 2 2 2 3 4 4 5 4 5 5 6 6 6 7 6 6 6 6 6 5 6 5 6 5 4 6 6 7 5 7 5 5 5 6 5 6 3 5 5 5 4 4 5 5 4 4 4 4 4 4 4 4 4 4 4 4 5 5 4 4
Wind_Direction
336 344 322 223 82 97 70 2 79 312 50 253 321 15 188 113 221 76 103 358 57 313 338 52 54 31 108 148 127 125 21 147 217 128 209 215 130 124 123 126 129 121 120 119 110 102 109 112 113 117 109 105 111 117 117 113 110 107 106 106 100 100 100 101 96 95 95 89 86 89 91 95 95 90 89 90 88 88 87 86 86 86 86 87 89 89 87 94 93 87 83 76 66 65 72 82 85
322 329 345 23 93 76 272 112 96 353 42 24 262 103 185 331 62 142 131 115 171 122 159 84 78 84 90 109 132 106 34 8 211 157 81 105 109 114 132 134 138 130 123 118 112 111 112 118 119 121 110 109 114 118 116 113 112 110 111 105 101 98 98 101 99 98 96 93 90 90 91 89 90 99 98 94 93 91 90 90 89 86 86 86 89 90 92 97 96 88 83 73 67 67 73 80 85
332 352 17 30 31 74 62 37 297 31 62 341 278 197 333 101 144 211 169 124 134 139 130 101 106 83 62 83 26 67 238 318 61 67 96 131 118 146 137 135 134 125 124 121 116 116 124 130 131 124 112 109 114 119 117 114 111 109 106 101 101 106 106 102 98 98 101 99 94 93 95 96 99 96 95 97 95 90 87 88 92 94 92 92 92 91 92 96 97 90 81 76 71 73 77 82 84
24 25 104 70 1 26 62 26 90 127 164 214 254 289 126 160 175 172 174 154 153 151 131 33 51 309 108 60 99 78 78 61 37 123 127 151 144 140 139 136 131 119 116 120 122 122 131 117 106 110 117 108 113 120 116 101 106 111 112 111 101 101 103 94 93 95 98 99 96 96 100 100 95 96 98 94 92 96 98 95 91 88 87 87 87 89 91 93 96 92 83 76 74 74 76 81 84
66 348 80 92 105 353 89 170 140 100 309 201 178 275 173 198 161 178 198 206 196 111 87 116 72 348 78 122 135 128 187 128 121 88 105 101 126 140 138 136 131 124 125 126 123 127 124 118 118 122 116 111 106 117 119 109 95 102 105 102 105 108 97 98 102 103 96 94 97 98 95 93 95 96 96 93 94 89 87 88 88 87 88 87 87 89 91 92 92 87 81 78 77 77 76 78 82
68 55 7 85 102 182 49 10 334 258 220 150 122 198 188 191 156 183 169 93 44 68 111 63 142 162 29 338 168 117 148 131 167 89 130 144 141 144 142 140 131 129 132 127 127 125 130 129 128 121 117 119 113 116 119 112 100 99 108 107 107 102 103 106 104 102 97 99 102 100 99 98 97 96 94 93 93 91 91 89 89 87 86 88 88 88 89 93 94 89 84 79 73 72 75 78 80
359 38 357 24 5 55 165 154 246 220 273 162 190 169 176 200 177 136 131 92 6 55 23 119 116 96 75 324 22 33 274 203 101 150 139 150 140 143 146 140 130 131 135 133 129 129 143 135 128 124 122 113 115 117 121 117 105 106 114 112 110 106 102 108 112 99 101 101 101 102 97 95 97 97 99 99 95 89 85 86 86 88 88 88 90 89 92 98 97 87 81 77 70 72 75 78 81
72 104 301 100 234 42 79 223 249 161 270 164 193 152 187 179 181 135 162 103 179 92 51 122 141 96 212 15 150 272 349 210 138 126 129 141 142 145 144 136 129 136 137 136 134 140 141 133 129 126 120 116 118 119 123 122 109 108 113 112 111 111 109 108 112 107 105 103 101 95 95 98 98 99 98 94 94 94 92 90 91 91 92 90 87 86 88 96 95 88 81 72 70 69 72 79 82
359 82 342 74 289 32 39 261 270 233 283 90 140 194 174 174 178 134 113 167 84 98 136 139 165 92 220 51 57 279 328 104 115 130 138 143 144 146 140 138 135 139 139 139 139 140 131 133 133 131 122 114 117 120 124 121 113 110 108 112 116 116 115 115 113 110 107 107 103 99 101 107 107 102 99 98 94 90 91 93 95 95 93 92 91 91 92 96 97 86 80 70 68 66 69 76 86
20 83 318 139 133 275 346 303 50 238 223 221 162 178 167 188 188 148 133 110 150 123 123 108 111 114 136 104 106 359 117 144 131 132 144 145 143 143 143 144 139 139 142 142 140 136 137 140 134 131 125 112 107 118 123 125 121 120 118 117 118 119 120 116 111 115 114 110 105 105 109 105 108 103 101 101 98 96 95 92 91 92 91 89 89 92 94 96 97 91 80 73 68 65 64 70 80
22 9 147 81 35 212 218 269 267 315 105 11 295 192 185 163 146 132 131 133 112 130 170 132 49 116 106 132 231 253 269 155 141 153 154 140 142 144 143 144 141 142 145 145 141 137 139 137 137 133 125 120 110 110 126 130 127 120 117 120 121 122 121 118 120 123 118 110 110 87 85 113 108 100 99 96 95 95 96 96 96 95 94 95 94 92 93 95 96 94 85 69 67 65 64 68 71
26 37 13 115 199 166 232 189 240 262 300 72 194 204 231 173 136 111 122 121 147 126 163 147 172 139 77 100 237 336 78 169 157 157 139 135 140 143 139 141 142 147 145 144 139 138 136 139 133 134 129 125 120 110 102 114 121 119 120 123 122 122 120 121 121 123 116 118 104 91 92 84 91 103 107 100 99 101 100 100 100 98 98 98 100 100 97 98 98 94 79 67 64 65 67 68 68
123 123 83 98 233 162 208 53 248 298 297 235 172 217 132 171 160 155 151 131 143 119 153 231 140 86 114 183 265 330 162 192 175 136 132 135 139 138 134 138 141 142 142 140 139 142 143 138 136 136 136 127 121 119 110 111 117 117 120 120 117 118 115 102 97 95 100 100 99 93 87 80 85 83 83 86 86 89 90 91 99 98 98 101 100 101 100 99 97 88 73 67 63 60 64 64 60
114 184 124 209 86 148 134 201 84 156 245 230 244 179 159 156 201 154 130 118 169 134 282 140 125 121 71 83 230 219 207 198 181 125 126 130 132 138 137 138 140 142 146 143 144 147 146 145 139 138 137 129 127 122 116 116 122 126 123 119 120 105 98 100 95 96 95 94 93 88 86 84 86 88 89 89 85 75 73 78 89 98 98 97 96 98 99 97 94 83 73 66 62 58 57 56 51
312 160 83 114 332 70 239 134 192 172 208 187 219 145 150 324 119 161 142 136 204 166 102 36 165 114 208 159 218 203 194 194 161 124 120 124 129 137 140 140 141 143 148 149 143 150 155 147 146 144 141 137 134 130 124 122 127 129 131 129 116 111 110 107 104 103 104 99 97 94 89 91 91 93 96 95 93 88 78 77 88 96 102 102 103 102 103 101 95 87 77 70 61 57 57 53 47
169 80 81 122 261 173 272 154 51 123 237 187 267 161 92 23 94 130 214 140 143 15 122 159 346 202 165 169 200 182 180 175 140 119 118 123 127 134 139 140 143 150 153 154 150 155 156 154 153 148 148 146 141 136 131 128 131 133 134 131 123 119 119 115 113 109 109 109 109 106 102 94 91 94 97 96 97 95 91 93 99 103 108 108 108 110 109 108 107 98 91 83 73 60 52 48 38
68 79 26 47 258 165 253 153 141 204 236 231 269 225 127 158 224 16 309 101 113 22 54 358 237 54 169 193 181 154 169 137 121 114 119 129 137 144 142 142 145 151 158 165 158 160 156 159 158 156 157 152 145 139 132 125 131 130 132 135 131 128 127 127 121 117 112 115 113 114 104 98 102 103 95 101 98 102 104 93 87 90 96 102 107 111 112 114 114 107 103 100 89 63 45 44 33
53 183 120 232 195 156 214 168 188 218 145 207 179 215 127 136 195 171 69 38 74 66 69 342 25 20 198 308 145 149 151 139 143 126 139 145 154 152 158 159 155 164 167 168 170 163 160 164 167 165 158 158 153 146 139 136 139 132 137 138 135 132 130 128 128 133 131 131 130 125 119 119 115 114 113 109 107 109 109 109 106 106 105 94 104 113 118 116 116 110 105 97 63 40 15 13 6
137 124 116 225 177 236 155 218 204 130 224 179 178 172 159 176 137 201 104 165 127 71 9 24 60 28 70 112 136 145 151 150 152 143 151 158 165 165 165 163 168 162 170 173 174 171 170 166 168 170 168 163 158 152 151 149 149 149 146 145 144 144 147 143 148 144 146 147 149 131 129 131 133 131 131 130 122 122 124 121 117 112 108 102 95 100 113 126 128 118 100 80 54 20 11 0 353
240 129 249 247 210 245 220 192 226 234 157 154 156 197 152 180 138 169 140 166 158 156 152 336 111 132 126 132 141 152 158 158 163 156 160 167 172 168 167 170 172 175 175 180 175 177 170 171 175 173 171 169 162 161 154 158 161 160 156 155 153 155 156 158 158 160 160 162 152 141 133 132 135 135 134 126 118 114 118 118 120 117 117 116 114 106 79 64 56 49 45 22 6 355 351 341 347
276 124 199 228 208 349 253 166 228 237 202 167 168 129 146 197 188 128 146 111 231 239 211 163 177 160 154 154 153 158 164 165 169 170 169 173 182 180 176 176 175 174 176 171 173 181 178 175 173 174 171 170 168 164 162 170 169 162 165 164 163 165 164 166 170 168 169 172 166 161 153 137 137 142 141 137 131 133 130 131 131 134 131 129 126 131 136 111 70 77 353 356 340 341 336 314 320
117 217 211 213 188 193 261 268 266 161 19 144 131 143 198 115 66 138 156 165 202 205 207 212 163 162 154 159 165 161 169 173 178 178 185 181 181 183 179 175 164 169 154 166 184 182 186 179 175 172 169 173 174 170 175 169 164 170 172 175 170 177 171 175 177 178 177 178 173 164 147 145 149 157 149 150 152 152 149 160 165 156 151 164 156 154 182 172 183 215 266 283 282 307 294 294 285
265 301 259 237 212 236 290 343 323 142 137 155 161 193 104 158 183 188 173 184 228 206 182 176 166 168 167 157 156 166 172 180 184 188 186 189 190 187 182 179 173 184 179 185 178 185 187 185 179 169 171 172 177 175 171 169 180 178 174 175 172 185 183 176 187 187 185 183 178 162 150 161 161 169 166 165 167 169 169 173 178 175 172 176 186 159 193 223 211 211 215 239 249 262 275 278 276
255 258 331 300 181 210 300 285 353 173 160 190 185 121 147 160 172 196 192 234 231 223 175 164 164 143 143 152 171 171 177 181 190 192 191 193 189 189 183 181 188 182 178 189 183 182 187 190 182 175 172 173 178 174 172 179 181 179 181 178 186 185 179 190 192 194 184 185 177 175 164 164 167 172 180 172 181 176 185 185 183 181 186 195 185 180 180 224 243 236 219 258 260 220 230 259 261
223 268 251 257 120 257 302 301 35 151 184 350 143 147 188 169 177 116 222 233 227 229 133 133 141 148 160 163 173 179 180 186 190 195 198 202 200 196 200 194 184 176 190 196 192 183 191 190 182 182 175 176 175 171 175 180 181 182 180 184 191 182 190 195 194 195 192 185 181 171 160 163 173 176 176 186 169 188 193 185 184 198 195 201 178 211 191 196 227 232 230 234 251 260 224 217 203
193 239 243 290 261 281 306 325 14 119 105 134 121 196 198 220 309 185 210 224 227 114 136 143 146 155 169 178 177 177 183 189 188 191 200 195 192 196 209 199 189 191 197 193 192 198 189 187 186 187 180 179 176 172 178 178 182 185 189 190 192 180 196 197 187 193 204 177 189 178 172 167 177 179 185 182 172 193 196 191 189 208 203 197 182 202 215 188 204 219 232 243 242 244 246 265 281
337 301 263 227 229 163 48 207 294 313 144 186 154 204 222 332 59 237 235 213 119 114 140 153 154 168 178 179 183 186 184 189 190 189 184 196 204 203 207 202 198 200 192 198 199 200 191 182 190 189 185 182 175 179 177 182 180 190 191 194 189 191 193 194 192 193 199 196 187 186 183 176 176 182 184 180 191 189 194 195 202 199 213 211 192 210 204 199 200 201 202 209 220 231 242 259 240
305 288 293 316 331 243 275 72 295 82 108 149 134 138 310 320 52 229 210 190 153 135 151 161 169 173 180 184 187 191 195 197 187 178 191 192 201 201 204 201 202 199 194 201 199 193 191 193 187 189 185 183 180 185 179 181 185 189 190 189 196 197 188 189 194 189 196 201 190 186 187 183 176 185 187 186 188 190 196 197 203 193 210 210 198 204 198 203 201 216 209 204 214 219 244 265 260
294 284 228 274 351 267 236 179 234 291 204 151 149 77 307 262 226 236 210 148 163 151 160 170 178 181 182 185 190 192 201 192 188 194 200 200 196 198 204 202 200 200 204 198 196 191 195 195 190 188 184 183 185 186 186 186 185 186 187 191 192 193 194 189 192 192 192 197 194 190 191 187 182 177 193 191 194 196 195 193 193 202 203 195 194 201 196 196 207 239 259 242 264 252 268 276 288
307 270 188 8 329 295 252 138 95 143 263 166 154 196 244 232 234 256 255 150 141 145 163 181 184 182 188 188 193 203 203 192 200 203 200 198 198 199 204 202 201 200 195 199 194 198 195 192 191 183 187 185 188 184 185 187 188 186 185 187 185 186 193 193 198 190 186 189 191 195 193 195 189 181 173 194 191 198 209 202 193 201 202 190 187 181 190 184 199 206 236 225 245 224 237 255 278
242 256 150 198 148 251 269 172 155 166 166 157 102 205 266 256 244 234 185 164 156 175 185 187 189 190 189 195 199 204 209 203 203 204 203 200 199 200 202 199 200 201 192 194 197 198 192 191 185 189 187 191 188 186 184 187 187 185 185 186 186 184 189 194 197 193 186 186 185 197 195 196 200 186 180 170 184 188 201 222 218 211 195 179 176 191 189 192 189 209 197 213 252 253 251 270 250
273 156 231 273 165 274 292 292 157 176 268 86 128 250 238 258 249 228 178 175 171 179 192 193 193 194 195 197 204 209 212 209 216 214 208 204 200 201 201 202 195 199 199 195 195 194 195 192 187 188 186 192 193 191 190 186 183 184 187 189 187 191 189 196 197 196 190 180 182 193 199 197 199 188 174 163 162 179 190 208 227 228 203 177 188 183 177 196 207 214 216 197 225 252 244 266 224
292 205 286 209 151 232 0 222 207 175 128 346 178 212 319 281 272 274 187 170 187 181 195 202 203 201 199 201 205 210 213 222 223 218 215 209 209 207 205 203 193 197 197 193 191 192 197 193 188 187 186 191 192 193 191 189 183 180 184 189 192 190 195 200 199 195 195 191 187 193 195 194 198 189 173 166 151 164 172 194 222 235 228 198 191 186 195 208 196 211 220 215 209 236 225 249 264
275 5 206 208 175 212 251 302 265 231 149 200 229 207 237 230 299 295 191 181 179 191 197 206 207 204 205 204 207 209 211 210 213 213 215 209 211 209 208 206 199 189 195 196 191 188 194 191 191 189 187 188 187 189 191 191 190 181 180 184 187 195 200 196 194 192 200 200 195 198 193 194 196 192 181 175 168 173 174 182 202 206 198 215 208 185 207 211 219 212 232 233 214 209 231 232 253
223 213 234 267 324 202 201 160 233 135 261 190 204 241 261 271 293 278 214 188 184 205 201 202 205 207 209 208 209 214 214 214 219 213 210 207 208 209 208 206 205 192 190 192 191 192 189 191 190 191 183 185 186 184 188 187 183 189 186 176 187 203 204 199 191 198 202 194 199 198 194 197 197 199 201 191 187 186 185 193 197 203 197 205 224 237 213 187 200 216 233 250 221 226 227 225 237
206 181 189 175 171 221 223 235 265 172 176 215 191 213 235 252 254 256 242 195 195 220 232 238 226 220 218 213 216 213 216 224 222 212 210 208 207 204 205 202 203 201 192 183 187 187 190 189 190 191 191 184 180 180 175 180 181 188 196 209 214 211 204 198 203 203 194 199 192 188 198 202 200 202 205 212 208 200 202 210 213 206 200 193 200 203 212 201 208 212 225 229 236 248 246 248 241
274 333 321 223 203 270 275 261 254 189 135 220 205 223 235 245 239 229 218 158 248 250 236 225 220 213 214 218 216 216 217 223 213 209 207 204 204 205 205 198 201 202 199 185 182 188 189 188 183 194 193 182 180 182 183 180 187 194 203 205 212 205 202 193 201 206 206 206 190 191 194 202 202 204 206 196 202 211 218 213 208 213 195 189 194 205 201 206 212 210 225 208 225 245 255 232 246
247 273 289 286 249 236 232 212 351 272 171 243 212 228 247 249 264 256 180 167 237 226 226 232 227 219 216 214 219 218 222 238 190 226 230 216 209 206 198 198 193 195 208 193 191 191 189 185 187 192 185 189 193 189 186 191 195 197 195 204 200 198 193 194 208 207 207 207 205 201 198 200 202 203 201 202 198 199 208 216 216 219 201 198 204 212 210 211 216 219 205 226 215 226 246 212 211
229 216 246 272 261 246 288 284 271 295 144 266 128 213 246 251 244 248 166 205 230 223 209 215 211 220 222 220 224 225 228 229 212 223 215 207 206 202 194 197 200 201 199 200 200 191 188 185 191 189 189 191 197 193 186 198 200 200 193 191 183 197 220 203 202 201 195 201 206 207 206 204 203 207 203 206 206 203 205 205 209 213 213 205 211 224 220 225 220 218 201 210 241 231 242 234 191
242 238 231 230 241 155 266 289 148 279 142 253 176 197 262 268 259 252 228 209 238 230 219 232 214 214 215 215 208 211 220 219 216 214 213 208 204 203 198 199 200 199 201 206 204 198 194 192 191 190 191 193 194 196 197 202 195 180 176 152 178 177 194 201 200 207 198 201 214 211 214 208 206 207 204 207 210 206 205 209 211 205 213 206 211 222 225 231 222 212 205 220 210 249 222 245 199
233 221 222 246 221 233 199 229 131 289 349 93 89 339 295 248 260 273 255 228 244 251 237 249 253 244 242 270 264 225 213 207 215 220 221 208 206 208 202 201 192 198 202 202 199 199 197 196 194 191 190 194 195 193 196 182 150 147 130 83 117 142 32 168 202 234 211 207 215 209 219 207 209 210 208 208 209 212 208 209 202 211 213 215 211 220 223 225 215 208 205 209 203 220 250 238 220
257 231 211 226 233 229 256 154 119 66 285 248 160 300 266 268 242 235 247 243 238 236 221 235 236 239 232 234 233 231 238 223 210 208 206 203 205 207 208 201 200 204 205 204 200 200 198 199 196 193 193 193 195 193 186 168 175 170 164 169 178 189 205 188 208 212 206 212 215 209 214 206 209 211 209 207 207 212 213 211 211 213 220 223 214 220 227 222 215 206 205 208 215 218 231 253 248
220 250 204 226 225 206 149 162 110 180 197 281 144 201 267 325 256 232 231 234 243 278 223 237 236 238 225 228 230 225 221 224 234 242 231 206 210 203 205 203 204 205 210 200 200 202 203 198 196 194 194 195 193 185 174 170 176 182 187 194 196 198 205 224 219 195 197 219 205 204 208 198 200 200 209 205 205 206 211 214 218 225 232 235 222 217 220 216 215 212 214 197 213 211 196 237 248
235 256 226 215 165 155 187 173 186 210 269 320 42 152 216 271 267 247 286 233 254 259 249 249 245 240 230 230 229 224 224 215 209 215 214 212 205 198 201 204 202 207 203 195 200 200 199 197 191 196 195 192 189 175 174 180 184 187 190 199 198 199 204 212 201 206 202 177 183 205 195 198 199 199 200 204 204 202 206 214 217 228 231 222 203 210 217 221 227 245 216 221 227 218 209 219 239
217 229 166 201 194 195 175 174 181 187 145 255 296 255 213 258 268 304 152 260 267 255 239 241 239 236 234 232 230 226 223 215 205 210 212 206 207 213 212 204 208 205 195 192 197 197 195 193 191 188 193 188 185 174 177 186 186 185 189 188 198 209 197 209 194 170 166 171 174 163 178 205 214 231 232 218 220 216 203 213 218 221 216 218 192 225 240 253 251 250 224 204 203 199 191 212 217
257 132 98 72 54 61 121 155 139 59 133 243 224 183 205 277 276 321 337 229 256 258 242 232 229 229 229 232 235 230 230 227 224 225 220 215 212 212 211 217 205 205 195 195 196 182 186 182 186 186 196 190 183 177 178 183 183 177 184 187 190 196 191 178 151 167 168 161 169 191 198 108 159 126 40 2 176 203 182 169 163 157 321 355 118 246 264 252 269 273 245 229 227 223 227 224 228
77 122 87 23 38 41 28 75 106 81 246 246 236 250 173 280 255 210 185 220 201 237 263 264 248 243 240 230 227 222 220 219 218 220 225 222 227 221 205 206 206 195 196 181 188 190 188 188 187 192 197 186 181 181 175 182 181 181 184 180 183 187 187 169 151 141 133 143 165 167 136 116 57 76 75 48 62 67 77 76 67 61 59 71 65 26 286 283 258 234 245 235 220 217 227 221 238
147 180 136 86 333 18 28 333 41 186 256 262 252 205 159 208 289 272 238 271 235 227 247 255 250 232 232 228 225 221 214 211 207 200 211 202 181 198 183 207 201 198 181 193 196 192 190 191 185 192 191 187 184 179 176 175 174 180 179 179 189 192 177 172 172 171 175 170 167 155 153 120 85 59 58 60 37 47 95 125 139 111 59 40 318 259 358 306 284 267 253 235 235 229 231 231 237
157 127 129 177 259 75 245 343 240 221 213 257 356 168 344 245 228 260 276 261 274 220 222 247 263 277 260 245 228 215 204 189 187 190 181 183 183 178 187 196 182 185 193 192 194 189 189 186 186 186 195 182 180 171 175 169 169 176 177 185 192 176 172 171 173 173 175 163 159 140 143 147 131 91 7 42 277 229 231 346 334 298 277 243 353 83 91 77 63 350 315 300 278 276 270 265 265
168 179 154 175 194 174 209 254 307 323 287 267 246 341 269 250 279 247 255 264 247 251 243 249 254 264 267 243 217 203 200 190 186 182 186 190 192 193 190 183 187 189 192 190 188 185 185 184 185 186 185 173 164 166 167 166 177 175 175 172 165 159 168 170 173 165 174 162 157 156 161 165 150 166 133 241 270 322 359 200 220 236 213 187 171 125 92 105 76 67 55 41 22 342 6 338 280
206 121 159 178 144 153 206 200 209 222 210 284 277 88 235 131 246 230 234 259 306 274 257 246 241 252 249 250 242 226 204 221 200 190 196 199 204 197 193 191 191 193 190 189 186 189 176 180 177 178 163 175 163 164 159 164 163 157 155 155 154 160 158 158 160 158 156 147 154 138 148 141 129 185 159 306 356 339 331 331 303 241 303 152 310 181 150 63 57 62 69 64 49 32 36 36 8
201 168 78 154 218 140 223 202 169 204 245 289 232 209 184 181 254 277 242 274 285 321 306 302 231 191 158 157 198 209 222 223 213 208 216 223 213 203 200 200 200 196 196 194 194 188 184 184 175 173 165 163 161 152 158 153 151 146 144 143 148 140 130 125 113 115 125 135 150 143 153 143 136 115 80 81 33 61 77 73 60 54 43 57 67 56 54 43 37 23 1 7 329 267 91 307 218
206 113 203 213 134 104 95 58 130 115 38 258 173 317 285 298 313 281 328 273 269 296 278 283 262 241 207 203 210 222 229 234 225 219 218 219 211 216 204 194 194 196 197 201 199 191 183 166 163 160 153 151 154 158 150 149 144 137 135 128 129 127 132 136 136 127 122 113 106 94 102 114 109 104 111 98 96 62 64 80 74 53 38 33 39 29 32 35 54 103 75 11 310 347 7 334 324
109 188 221 169 110 108 147 221 5 82 209 260 84 214 285 358 270 315 337 306 264 261 252 260 270 272 238 232 233 233 230 235 246 253 252 228 205 196 196 196 190 191 195 197 199 188 177 169 165 157 155 155 158 150 149 149 143 136 131 125 122 127 126 125 124 121 108 95 89 97 110 107 105 111 108 104 98 82 67 58 75 57 48 50 48 34 26 21 26 38 31 14 356 8 28 16 25
146 195 172 153 214 227 279 126 223 196 240 264 291 255 263 188 235 332 296 246 258 254 262 275 249 237 235 240 251 254 274 288 254 241 239 234 212 201 193 197 199 193 187 184 174 166 159 162 164 159 160 157 152 146 137 133 135 133 132 131 128 119 112 106 93 90 95 112 121 127 120 115 99 110 110 106 91 88 85 72 78 74 64 64 59 54 50 46 44 52 29 34 14 32 55 36 18
63 53 86 344 124 216 146 201 178 132 254 61 287 42 241 206 219 208 251 247 240 243 217 233 225 216 216 224 228 226 225 221 228 227 226 223 217 201 188 181 178 181 176 175 164 156 158 155 149 144 130 132 132 134 136 131 133 127 117 111 105 104 103 108 115 124 122 126 137 130 123 109 120 106 97 93 90 91 89 83 70 74 64 56 57 50 55 62 63 63 52 44 20 42 54 50 15
198 123 199 218 140 238 110 43 145 193 197 192 216 297 279 253 213 195 228 241 245 215 227 236 233 224 220 222 215 216 213 211 215 212 210 206 198 194 183 171 157 144 149 156 159 161 155 147 147 151 145 145 139 140 133 130 120 119 116 124 120 116 121 121 114 112 115 118 118 115 114 128 110 89 105 91 91 92 90 92 82 69 68 59 59 50 46 61 62 61 50 57 43 51 56 37 33
174 161 194 172 134 145 184 241 49 106 160 237 127 254 268 270 192 208 233 268 311 242 224 237 232 217 212 215 222 210 207 215 205 202 192 184 178 170 138 107 112 121 135 144 147 136 147 154 152 147 138 146 142 141 133 131 125 130 139 130 127 122 123 118 119 120 116 119 119 119 130 105 96 106 103 102 101 100 92 89 84 83 71 65 59 65 52 62 62 53 40 40 40 43 43 32 27